N48MQ KGYH-KMCN

Flight info

Callsign N48MQ
Flight time 0h 57m
Altitude VFRFF
Route
Aircraft M20P/L-VGD/C

Departure

Time 2026-04-17 23:09
Airport Donaldson Field Airport (KGYH)

Arrival

Time 2026-04-18 00:07
Airport Middle Georgia Regional Airport (KMCN)
Time Latitude Longitude Altitude Speed Heading
2026-04-17 23:09 34.68350 -82.42018 4312 ft 109 kts 207°
2026-04-17 23:09 34.67664 -82.42416 4613 ft 108 kts 207°
2026-04-17 23:10 34.66989 -82.42808 4912 ft 107 kts 207°
2026-04-17 23:10 34.66316 -82.43199 5214 ft 105 kts 208°
2026-04-17 23:10 34.65656 -82.43584 5515 ft 104 kts 208°
2026-04-17 23:10 34.65007 -82.43961 5814 ft 104 kts 209°
2026-04-17 23:11 34.64352 -82.44343 6115 ft 104 kts 209°
2026-04-17 23:11 34.63696 -82.44724 6415 ft 104 kts 210°
2026-04-17 23:11 34.63036 -82.45109 6718 ft 103 kts 210°
2026-04-17 23:11 34.62391 -82.45484 7016 ft 103 kts 211°
2026-04-17 23:12 34.61754 -82.45854 7312 ft 101 kts 211°
2026-04-17 23:12 34.61119 -82.46223 7610 ft 100 kts 212°
2026-04-17 23:12 34.60493 -82.46587 7906 ft 99 kts 212°
2026-04-17 23:12 34.59868 -82.46950 8206 ft 98 kts 213°
2026-04-17 23:13 34.59257 -82.47306 8457 ft 100 kts 213°
2026-04-17 23:13 34.58583 -82.47707 8494 ft 113 kts 213°
2026-04-17 23:13 34.57843 -82.48143 8492 ft 121 kts 212°
2026-04-17 23:13 34.57064 -82.48595 8488 ft 125 kts 212°
2026-04-17 23:14 34.56262 -82.49060 8487 ft 128 kts 212°
2026-04-17 23:14 34.55450 -82.49532 8485 ft 130 kts 212°
2026-04-17 23:14 34.54617 -82.50015 8484 ft 131 kts 212°
2026-04-17 23:14 34.53780 -82.50500 8483 ft 132 kts 212°
2026-04-17 23:15 34.52934 -82.50992 8483 ft 133 kts 212°
2026-04-17 23:15 34.52082 -82.51486 8483 ft 134 kts 212°
2026-04-17 23:15 34.51213 -82.51990 8482 ft 135 kts 212°
2026-04-17 23:15 34.50350 -82.52492 8481 ft 136 kts 212°
2026-04-17 23:16 34.49475 -82.52998 8481 ft 136 kts 212°
2026-04-17 23:16 34.48615 -82.53497 8480 ft 136 kts 212°
2026-04-17 23:16 34.47762 -82.53992 8480 ft 136 kts 212°
2026-04-17 23:16 34.46893 -82.54495 8479 ft 136 kts 212°
2026-04-17 23:17 34.46032 -82.54995 8479 ft 136 kts 212°
2026-04-17 23:17 34.45172 -82.55493 8478 ft 136 kts 212°
2026-04-17 23:17 34.44317 -82.55988 8478 ft 136 kts 212°
2026-04-17 23:17 34.43455 -82.56488 8478 ft 136 kts 212°
2026-04-17 23:18 34.42598 -82.56984 8478 ft 136 kts 212°
2026-04-17 23:18 34.41747 -82.57477 8478 ft 136 kts 212°
2026-04-17 23:18 34.40892 -82.57972 8477 ft 136 kts 212°
2026-04-17 23:18 34.40040 -82.58465 8477 ft 136 kts 212°
2026-04-17 23:19 34.39183 -82.58960 8477 ft 136 kts 212°
2026-04-17 23:19 34.38329 -82.59455 8477 ft 136 kts 212°
2026-04-17 23:19 34.37475 -82.59948 8477 ft 136 kts 212°
2026-04-17 23:19 34.36617 -82.60445 8478 ft 136 kts 212°
2026-04-17 23:20 34.35766 -82.60936 8478 ft 135 kts 212°
2026-04-17 23:20 34.34908 -82.61432 8478 ft 135 kts 212°
2026-04-17 23:20 34.34052 -82.61926 8478 ft 135 kts 212°
2026-04-17 23:20 34.33204 -82.62417 8478 ft 135 kts 212°
2026-04-17 23:21 34.32349 -82.62911 8478 ft 135 kts 212°
2026-04-17 23:21 34.31490 -82.63409 8478 ft 135 kts 212°
2026-04-17 23:21 34.30647 -82.63899 8478 ft 135 kts 212°
2026-04-17 23:21 34.29791 -82.64396 8479 ft 135 kts 212°
2026-04-17 23:22 34.28945 -82.64886 8479 ft 135 kts 212°
2026-04-17 23:22 34.28093 -82.65379 8484 ft 135 kts 211°
2026-04-17 23:22 34.27240 -82.65871 8485 ft 136 kts 211°
2026-04-17 23:22 34.26394 -82.66360 8485 ft 136 kts 211°
2026-04-17 23:23 34.25539 -82.66853 8486 ft 136 kts 211°
2026-04-17 23:23 34.24680 -82.67348 8486 ft 136 kts 211°
2026-04-17 23:23 34.23818 -82.67845 8486 ft 136 kts 211°
2026-04-17 23:23 34.22967 -82.68336 8486 ft 136 kts 211°
2026-04-17 23:24 34.22104 -82.68833 8487 ft 136 kts 211°
2026-04-17 23:24 34.21247 -82.69326 8487 ft 136 kts 211°
2026-04-17 23:24 34.20390 -82.69820 8487 ft 136 kts 211°
2026-04-17 23:24 34.19540 -82.70309 8488 ft 136 kts 210°
2026-04-17 23:25 34.18677 -82.70805 8488 ft 136 kts 210°
2026-04-17 23:25 34.17819 -82.71299 8488 ft 136 kts 210°
2026-04-17 23:25 34.16970 -82.71787 8488 ft 136 kts 210°
2026-04-17 23:25 34.16106 -82.72284 8489 ft 136 kts 210°
2026-04-17 23:26 34.15251 -82.72775 8489 ft 136 kts 210°
2026-04-17 23:26 34.14404 -82.73263 8489 ft 136 kts 210°
2026-04-17 23:26 34.13543 -82.73757 8489 ft 136 kts 210°
2026-04-17 23:26 34.12688 -82.74249 8489 ft 136 kts 210°
2026-04-17 23:27 34.11833 -82.74740 8489 ft 136 kts 210°
2026-04-17 23:27 34.10978 -82.75230 8489 ft 136 kts 210°
2026-04-17 23:27 34.10113 -82.75727 8489 ft 136 kts 210°
2026-04-17 23:27 34.09256 -82.76219 8489 ft 136 kts 210°
2026-04-17 23:28 34.08393 -82.76712 8489 ft 136 kts 210°
2026-04-17 23:28 34.07531 -82.77207 8490 ft 136 kts 210°
2026-04-17 23:28 34.06667 -82.77705 8490 ft 136 kts 210°
2026-04-17 23:28 34.05814 -82.78194 8490 ft 135 kts 209°
2026-04-17 23:29 34.04953 -82.78688 8490 ft 135 kts 208°
2026-04-17 23:29 34.04100 -82.79177 8490 ft 135 kts 208°
2026-04-17 23:29 34.03255 -82.79662 8491 ft 134 kts 207°
2026-04-17 23:29 34.02408 -82.80148 8491 ft 134 kts 207°
2026-04-17 23:30 34.01554 -82.80637 8491 ft 134 kts 206°
2026-04-17 23:30 34.00706 -82.81123 8491 ft 134 kts 206°
2026-04-17 23:30 33.99852 -82.81612 8492 ft 134 kts 206°
2026-04-17 23:30 33.98960 -82.82114 8482 ft 144 kts 216°
2026-04-17 23:31 33.98037 -82.82644 8505 ft 150 kts 216°
2026-04-17 23:31 33.97066 -82.83204 8505 ft 156 kts 216°
2026-04-17 23:31 33.96059 -82.83781 8504 ft 160 kts 216°
2026-04-17 23:31 33.95047 -82.84359 8503 ft 162 kts 215°
2026-04-17 23:32 33.94024 -82.84943 8502 ft 163 kts 215°
2026-04-17 23:32 33.92994 -82.85531 8502 ft 163 kts 215°
2026-04-17 23:32 33.91960 -82.86120 8502 ft 162 kts 215°
2026-04-17 23:32 33.90920 -82.86713 8502 ft 162 kts 215°
2026-04-17 23:33 33.89915 -82.87287 8501 ft 161 kts 215°
2026-04-17 23:33 33.88889 -82.87872 8499 ft 161 kts 215°
2026-04-17 23:33 33.87894 -82.88440 8499 ft 161 kts 215°
2026-04-17 23:33 33.86883 -82.89017 8499 ft 160 kts 215°
2026-04-17 23:34 33.85876 -82.89592 8499 ft 160 kts 215°
2026-04-17 23:34 33.84864 -82.90170 8499 ft 160 kts 215°
2026-04-17 23:34 33.83857 -82.90743 8499 ft 160 kts 215°
2026-04-17 23:34 33.82854 -82.91315 8499 ft 160 kts 215°
2026-04-17 23:35 33.81853 -82.91885 8499 ft 160 kts 215°
2026-04-17 23:35 33.80846 -82.92459 8499 ft 160 kts 215°
2026-04-17 23:35 33.79836 -82.93035 8499 ft 160 kts 214°
2026-04-17 23:35 33.78826 -82.93610 8499 ft 160 kts 214°
2026-04-17 23:36 33.77822 -82.94181 8499 ft 160 kts 214°
2026-04-17 23:36 33.76809 -82.94758 8499 ft 160 kts 214°
2026-04-17 23:36 33.75797 -82.95334 8499 ft 161 kts 214°
2026-04-17 23:36 33.74798 -82.95902 8499 ft 161 kts 214°
2026-04-17 23:37 33.73782 -82.96480 8499 ft 161 kts 214°
2026-04-17 23:37 33.72772 -82.97055 8499 ft 161 kts 214°
2026-04-17 23:37 33.71760 -82.97629 8499 ft 161 kts 214°
2026-04-17 23:37 33.70745 -82.98206 8499 ft 161 kts 214°
2026-04-17 23:38 33.69742 -82.98776 8499 ft 161 kts 214°
2026-04-17 23:38 33.68732 -82.99350 8499 ft 161 kts 214°
2026-04-17 23:38 33.67709 -82.99931 8499 ft 161 kts 214°
2026-04-17 23:38 33.66708 -83.00498 8502 ft 159 kts 214°
2026-04-17 23:39 33.65702 -83.01070 8498 ft 158 kts 214°
2026-04-17 23:39 33.64939 -83.01502 8498 ft 157 kts 214°
2026-04-17 23:39 33.63954 -83.02061 8499 ft 156 kts 214°
2026-04-17 23:39 33.62970 -83.02619 8499 ft 156 kts 214°
2026-04-17 23:40 33.61995 -83.03172 8499 ft 155 kts 214°
2026-04-17 23:40 33.61023 -83.03723 8499 ft 155 kts 214°
2026-04-17 23:40 33.60049 -83.04275 8499 ft 155 kts 214°
2026-04-17 23:40 33.59063 -83.04835 8498 ft 155 kts 214°
2026-04-17 23:41 33.58090 -83.05386 8496 ft 155 kts 214°
2026-04-17 23:41 33.57115 -83.05938 8494 ft 155 kts 214°
2026-04-17 23:41 33.56142 -83.06489 8493 ft 156 kts 214°
2026-04-17 23:41 33.55151 -83.07050 8491 ft 156 kts 214°
2026-04-17 23:42 33.54174 -83.07603 8489 ft 156 kts 214°
2026-04-17 23:42 33.53189 -83.08160 8487 ft 157 kts 214°
2026-04-17 23:42 33.52209 -83.08714 8486 ft 157 kts 214°
2026-04-17 23:42 33.51214 -83.09277 8484 ft 157 kts 214°
2026-04-17 23:43 33.50218 -83.09840 8482 ft 158 kts 214°
2026-04-17 23:43 33.49237 -83.10394 8481 ft 158 kts 214°
2026-04-17 23:43 33.48236 -83.10960 8479 ft 159 kts 214°
2026-04-17 23:43 33.47230 -83.11527 8477 ft 159 kts 214°
2026-04-17 23:44 33.46227 -83.12094 8476 ft 160 kts 214°
2026-04-17 23:44 33.45234 -83.12655 8474 ft 160 kts 214°
2026-04-17 23:44 33.44214 -83.13230 8473 ft 160 kts 214°
2026-04-17 23:44 33.43207 -83.13799 8472 ft 161 kts 214°
2026-04-17 23:45 33.41176 -83.14944 8472 ft 161 kts 214°
2026-04-17 23:45 33.40164 -83.15514 8472 ft 161 kts 214°
2026-04-17 23:45 33.39154 -83.16083 8472 ft 161 kts 214°
2026-04-17 23:46 33.38134 -83.16657 8472 ft 162 kts 214°
2026-04-17 23:46 33.37128 -83.17224 8472 ft 162 kts 214°
2026-04-17 23:46 33.36103 -83.17802 8472 ft 162 kts 214°
2026-04-17 23:46 33.35083 -83.18376 8472 ft 162 kts 214°
2026-04-17 23:47 33.34076 -83.18943 8472 ft 162 kts 214°
2026-04-17 23:47 33.33058 -83.19515 8472 ft 162 kts 214°
2026-04-17 23:47 33.32037 -83.20090 8472 ft 162 kts 214°
2026-04-17 23:47 33.31018 -83.20663 8472 ft 162 kts 214°
2026-04-17 23:48 33.30005 -83.21233 8472 ft 162 kts 214°
2026-04-17 23:48 33.28976 -83.21812 8472 ft 162 kts 214°
2026-04-17 23:48 33.27960 -83.22382 8472 ft 162 kts 214°
2026-04-17 23:48 33.26946 -83.22953 8472 ft 162 kts 214°
2026-04-17 23:49 33.25928 -83.23524 8472 ft 162 kts 214°
2026-04-17 23:49 33.24912 -83.24095 8472 ft 162 kts 214°
2026-04-17 23:49 33.23894 -83.24666 8472 ft 162 kts 214°
2026-04-17 23:49 33.22913 -83.25208 8344 ft 145 kts 214°
2026-04-17 23:50 33.22040 -83.25684 8174 ft 130 kts 216°
2026-04-17 23:50 33.21252 -83.26122 8014 ft 122 kts 216°
2026-04-17 23:50 33.20494 -83.26547 7857 ft 119 kts 217°
2026-04-17 23:50 33.19758 -83.26962 7705 ft 117 kts 217°
2026-04-17 23:51 33.19029 -83.27374 7553 ft 116 kts 216°
2026-04-17 23:51 33.18296 -83.27788 7401 ft 116 kts 216°
2026-04-17 23:51 33.17567 -83.28199 7250 ft 116 kts 216°
2026-04-17 23:51 33.16838 -83.28610 7103 ft 118 kts 216°
2026-04-17 23:52 33.16094 -83.29030 6956 ft 119 kts 215°
2026-04-17 23:52 33.15333 -83.29457 6806 ft 120 kts 215°
2026-04-17 23:52 33.14579 -83.29880 6658 ft 121 kts 214°
2026-04-17 23:52 33.13820 -83.30305 6509 ft 121 kts 214°
2026-04-17 23:53 33.13050 -83.30735 6358 ft 121 kts 214°
2026-04-17 23:53 33.12296 -83.31157 6211 ft 121 kts 214°
2026-04-17 23:53 33.11532 -83.31585 6062 ft 121 kts 213°
2026-04-17 23:53 33.10757 -83.32019 5912 ft 122 kts 213°
2026-04-17 23:54 33.09979 -83.32454 5763 ft 123 kts 213°
2026-04-17 23:54 33.09203 -83.32886 5615 ft 123 kts 212°
2026-04-17 23:54 33.08416 -83.33325 5464 ft 123 kts 212°
2026-04-17 23:54 33.07628 -83.33766 5312 ft 123 kts 212°
2026-04-17 23:55 33.06839 -83.34209 5160 ft 123 kts 212°
2026-04-17 23:55 33.06059 -83.34646 5010 ft 123 kts 212°
2026-04-17 23:55 33.05276 -83.35084 4860 ft 123 kts 211°
2026-04-17 23:55 33.04486 -83.35525 4707 ft 122 kts 211°
2026-04-17 23:56 33.03708 -83.35959 4557 ft 122 kts 211°
2026-04-17 23:56 33.02929 -83.36393 4502 ft 122 kts 211°
2026-04-17 23:56 33.02098 -83.36862 4503 ft 135 kts 211°
2026-04-17 23:56 33.01207 -83.37363 4500 ft 143 kts 210°
2026-04-17 23:57 33.00270 -83.37886 4498 ft 149 kts 210°
2026-04-17 23:57 32.99296 -83.38429 4497 ft 154 kts 210°
2026-04-17 23:57 32.98298 -83.38985 4496 ft 156 kts 210°
2026-04-17 23:57 32.97288 -83.39547 4496 ft 158 kts 210°
2026-04-17 23:58 32.96278 -83.40109 4496 ft 159 kts 210°
2026-04-17 23:58 32.95252 -83.40681 4496 ft 159 kts 210°
2026-04-17 23:58 32.94222 -83.41254 4496 ft 160 kts 210°
2026-04-17 23:58 32.93202 -83.41822 4496 ft 160 kts 210°
2026-04-17 23:59 32.92170 -83.42396 4497 ft 160 kts 210°
2026-04-17 23:59 32.91145 -83.42967 4497 ft 160 kts 210°
2026-04-17 23:59 32.90105 -83.43546 4497 ft 160 kts 210°
2026-04-17 23:59 32.89093 -83.44109 4495 ft 160 kts 210°
2026-04-18 00:00 32.88085 -83.44669 4495 ft 160 kts 210°
2026-04-18 00:00 32.87063 -83.45237 4495 ft 160 kts 210°
2026-04-18 00:00 32.86046 -83.45802 4495 ft 160 kts 210°
2026-04-18 00:00 32.85017 -83.46374 4495 ft 160 kts 210°
2026-04-18 00:01 32.84003 -83.46938 4495 ft 159 kts 210°
2026-04-18 00:01 32.82977 -83.47502 4342 ft 165 kts 214°
2026-04-18 00:01 32.82094 -83.48351 4099 ft 160 kts 230°
2026-04-18 00:01 32.81372 -83.49270 3880 ft 138 kts 232°
2026-04-18 00:02 32.80761 -83.50063 3671 ft 124 kts 233°
2026-04-18 00:02 32.80201 -83.50800 3486 ft 117 kts 233°
2026-04-18 00:02 32.79664 -83.51511 3314 ft 113 kts 233°
2026-04-18 00:02 32.79128 -83.52220 3153 ft 116 kts 232°
2026-04-18 00:03 32.78582 -83.52942 2989 ft 118 kts 232°
2026-04-18 00:03 32.78027 -83.53673 2821 ft 119 kts 232°
2026-04-18 00:03 32.77465 -83.54414 2651 ft 119 kts 231°
2026-04-18 00:03 32.76906 -83.55148 2483 ft 120 kts 231°
2026-04-18 00:04 32.76340 -83.55894 2313 ft 120 kts 231°
2026-04-18 00:04 32.75776 -83.56637 2144 ft 120 kts 231°
2026-04-18 00:04 32.75216 -83.57373 1978 ft 119 kts 230°
2026-04-18 00:04 32.74655 -83.58111 1811 ft 119 kts 230°
2026-04-18 00:05 32.74099 -83.58843 1647 ft 119 kts 230°
2026-04-18 00:05 32.73542 -83.59575 1484 ft 119 kts 230°
2026-04-18 00:05 32.72987 -83.60305 1321 ft 119 kts 229°
2026-04-18 00:05 32.72427 -83.61041 1158 ft 118 kts 229°
2026-04-18 00:06 32.71872 -83.61771 997 ft 118 kts 229°
2026-04-18 00:06 32.71312 -83.62506 835 ft 118 kts 229°
2026-04-18 00:06 32.70818 -83.63159 730 ft 93 kts 229°
2026-04-18 00:06 32.70386 -83.63725 595 ft 92 kts 229°
2026-04-18 00:07 32.69965 -83.64275 404 ft 88 kts 227°
2026-04-18 00:07 32.69610 -83.64742 347 ft 60 kts 228°
2026-04-18 00:07 32.69364 -83.65065 344 ft 43 kts 229°
2026-04-18 00:07 32.69335 -83.65160 343 ft 10 kts 337°
2026-04-18 00:08 32.69420 -83.65213 341 ft 14 kts 16°
2026-04-18 00:08 32.69506 -83.65172 342 ft 15 kts 21°
2026-04-18 00:08 32.69665 -83.65133 343 ft 30 kts
2026-04-18 00:08 32.69839 -83.65056 345 ft 24 kts 37°
2026-04-18 00:09 32.69960 -83.64941 347 ft 22 kts 37°
2026-04-18 00:09 32.70034 -83.64788 352 ft 22 kts 75°
2026-04-18 00:09 32.70098 -83.64645 355 ft 16 kts
2026-04-18 00:09 32.70125 -83.64713 356 ft 8 kts 265°
2026-04-18 00:10 32.70102 -83.64723 355 ft 4 kts 94°
2026-04-18 00:10 32.70095 -83.64696 355 ft 0 kts 107°